Location: Wavehorne
(51.0500°N, 0.8333°E)
Time: 00:51:34
(UTC+00:00)

Cosmos 1825 - Pass Details

Date: 20 June 2021
Orbit: 501 x 506 km, 82.5° (Epoch: 04 August)

Event Time Altitude Azimuth Distance (km) Brightness Sun altitude
Exits shadow 01:47:45 15° 233° (SW) 1,420 3.9 -11.7°
Maximum altitude 01:50:15 31° 288° (WNW) 920 3.4 -11.5°
Drops below altitude 10° 01:53:40 10° 352° (N) 1,731 5.8 -11.3°
Sets 01:55:59 0° 3° (N) 2,620 7.1 -11.1°
